Wetbulb
57.30 57.40 57.21 56.99 57.07 56.84 56.25 55.39 55.31 55.31 55.26 55.15 55.42 55.63 55.29 54.94 55.22 51.42 46.79 51.47 54.20 59.14 61.03 53.01 51.37 50.94 49.59 46.97 48.77 50.88 42.35 41.00 43.69 46.50 49.25 53.49 53.98 57.54 58.13 54.87 56.49 56.32 56.70 57.73 58.52
56.34 57.09 57.26 57.04 56.79 56.74 56.38 55.99 55.26 55.12 55.23 55.57 55.35 54.82 54.81 54.71 49.92 47.09 54.14 60.85 61.31 63.46 54.61 49.62 47.18 49.25 44.06 44.68 45.98 45.16 42.11 43.11 48.59 50.30 49.84 51.51 50.99 54.28 53.81 53.81 54.43 56.07 58.30 58.95 57.95
55.29 55.78 56.69 56.76 56.78 56.29 55.98 56.36 55.74 55.46 55.36 55.35 55.38 55.06 54.71 53.52 47.52 51.50 65.69 61.22 63.42 62.83 51.49 50.19 49.34 47.61 41.91 44.52 45.30 44.98 42.09 46.36 49.22 51.21 51.72 50.53 50.33 51.58 49.98 48.85 51.76 53.04 54.26 55.04 55.61
54.60 54.90 55.26 56.14 56.35 56.20 55.98 55.76 55.65 55.62 55.13 55.11 55.10 55.00 54.58 50.59 43.75 56.18 64.81 65.72 64.03 55.09 51.29 48.36 46.88 43.83 41.98 41.57 46.04 41.59 46.66 47.60 47.65 50.46 50.44 48.66 51.14 51.74 50.38 49.45 52.81 52.88 54.26 54.80 54.07
54.16 54.34 54.25 54.67 55.44 55.98 55.91 55.70 55.08 55.49 55.30 54.69 54.55 54.60 51.17 46.40 48.33 61.05 62.93 63.26 57.13 52.58 47.70 45.91 44.76 46.05 41.36 43.46 44.85 44.00 45.97 48.40 48.91 48.55 47.06 50.07 48.51 49.17 49.19 51.99 53.49 53.72 53.85 53.25 52.85
54.64 54.10 54.01 54.13 54.91 55.51 55.85 55.63 55.33 54.20 55.04 55.07 54.45 54.76 49.08 43.91 56.86 60.87 57.79 55.67 54.07 49.08 45.28 46.91 48.50 50.03 45.06 44.76 43.33 46.33 46.90 47.45 47.94 47.94 46.86 47.28 48.01 48.61 49.72 52.30 51.99 51.96 51.92 51.58 52.96
55.02 54.80 53.95 54.12 54.42 54.86 55.31 55.07 54.77 54.56 54.56 54.82 54.68 54.05 47.29 45.93 56.49 57.37 52.83 49.06 50.05 49.07 47.73 50.75 52.19 49.64 47.10 44.15 48.46 47.93 43.62 46.22 46.68 46.15 46.51 48.15 45.04 46.28 50.25 51.30 50.17 50.51 50.51 52.34 53.10
55.50 55.13 54.63 54.26 53.99 54.30 54.70 54.71 54.62 54.53 54.52 54.66 54.93 52.29 44.59 56.50 55.50 54.21 53.91 53.09 53.91 50.82 50.76 53.54 54.20 50.55 46.61 48.19 48.10 43.97 43.21 38.17 44.22 47.05 47.89 46.59 40.01 48.05 50.29 49.97 49.58 50.98 51.48 52.34 51.95
55.66 55.19 55.17 54.61 53.72 53.46 53.91 53.93 54.36 56.08 55.43 55.04 51.12 48.27 46.79 57.68 52.13 54.47 55.42 54.03 53.71 54.14 54.41 56.77 52.54 47.91 48.12 42.24 39.91 40.78 35.26 37.68 41.82 46.20 46.30 44.08 41.15 48.06 49.89 49.27 48.93 49.73 50.79 51.75 51.43
55.78 55.17 54.99 54.91 54.20 53.38 53.09 53.52 54.39 54.52 54.65 54.88 53.91 47.24 51.48 52.68 50.80 53.22 57.50 56.09 51.53 51.63 52.15 50.58 47.08 42.82 41.70 39.05 33.14 37.69 37.62 40.05 40.70 45.51 46.17 42.55 42.73 46.55 48.41 48.65 48.32 48.68 49.73 50.43 51.20
55.84 55.19 54.93 54.75 54.30 52.26 51.40 49.57 50.29 49.27 51.72 48.09 50.11 49.91 52.09 56.40 53.12 52.78 57.00 54.07 51.73 49.54 43.01 46.25 39.41 37.34 41.30 43.76 44.33 43.37 41.57 40.67 43.70 46.24 44.38 42.76 42.47 44.67 46.89 47.26 47.00 47.55 48.29 49.39 50.52
55.50 54.89 54.42 54.50 53.58 52.80 50.35 46.74 52.06 52.64 47.33 53.80 54.03 52.72 55.83 55.38 49.49 52.26 56.18 49.06 47.72 42.63 45.75 42.80 38.71 44.89 47.58 47.16 45.77 43.86 41.25 40.04 44.08 46.59 43.42 42.74 42.44 45.51 46.46 46.91 47.40 47.99 48.59 49.50 49.48
54.30 54.05 54.50 54.20 52.63 50.08 47.79 50.47 55.46 56.00 46.11 50.55 54.16 53.43 52.83 52.88 50.49 49.88 52.46 50.46 46.70 43.84 44.49 41.25 44.94 48.56 46.75 44.66 44.31 41.88 40.39 41.24 40.92 44.51 44.88 42.79 40.20 43.10 47.28 48.37 49.56 49.73 50.18 50.05 49.97
54.13 54.18 54.04 53.31 49.12 52.96 51.02 55.42 55.39 55.89 41.08 47.94 50.20 52.33 52.56 51.90 48.11 54.44 53.79 50.86 47.59 44.39 45.46 44.09 47.81 47.23 44.48 44.01 44.09 38.97 45.19 44.63 43.38 40.89 34.43 43.46 31.43 40.68 44.85 46.33 48.32 48.64 48.54 49.28 50.70
54.16 54.14 53.79 52.19 47.71 49.90 53.87 55.07 54.94 53.41 35.63 49.01 49.36 54.80 52.19 48.01 50.23 51.30 54.77 50.79 45.41 45.44 44.99 42.63 44.73 44.76 43.12 43.95 45.52 41.97 47.24 45.12 44.10 39.16 37.61 39.48 33.97 38.54 44.07 44.32 45.91 47.09 48.94 48.72 49.67
53.72 53.99 53.32 51.73 50.11 51.84 55.99 54.79 53.09 40.56 35.37 46.86 49.87 48.16 46.75 48.43 49.45 51.27 50.85 52.07 50.38 45.90 45.34 44.37 48.77 47.27 46.19 47.82 47.33 48.30 44.57 43.20 41.32 37.64 30.19 38.39 36.64 37.40 41.90 44.39 45.42 47.08 48.71 49.76 50.41
53.45 53.20 51.24 52.04 51.29 56.56 56.03 51.29 41.44 37.01 49.95 45.78 45.25 47.09 46.07 45.57 46.75 47.66 46.14 43.33 40.74 36.85 38.22 42.62 43.63 47.15 48.85 45.21 46.49 44.44 37.74 29.74 28.22 28.69 29.78 41.27 38.46 39.32 46.40 46.91 47.18 46.28 47.89 49.15 49.58
52.48 51.03 51.21 53.37 55.75 56.62 54.13 45.62 38.14 45.49 45.75 49.32 48.09 47.43 43.86 45.98 45.42 46.62 44.89 41.23 44.56 42.71 39.18 37.22 36.34 45.31 48.91 46.54 42.65 42.90 40.83 34.33 26.54 26.96 31.81 41.99 35.47 41.92 46.83 47.98 48.38 49.20 48.42 49.02 47.55
50.79 51.70 54.00 56.50 57.05 55.95 48.99 39.68 42.90 45.51 47.30 45.56 46.29 43.64 43.28 46.61 46.70 45.97 43.65 43.20 46.00 44.92 38.48 37.59 38.67 48.79 48.63 48.92 45.91 42.09 37.94 42.82 34.78 36.59 30.85 34.98 39.81 45.42 47.92 46.87 47.75 47.34 47.86 46.99 47.86
47.20 48.41 52.83 59.09 58.49 54.48 45.68 42.57 46.80 48.92 48.38 47.68 41.93 45.57 42.05 44.58 44.08 44.00 43.81 47.63 47.03 48.52 46.25 41.44 35.25 45.14 47.58 49.14 48.08 43.41 45.51 36.04 35.50 27.67 25.10 33.93 36.50 38.09 41.68 42.69 44.64 43.34 42.82 43.99 45.91
47.31 49.25 55.91 58.23 57.27 49.43 41.41 45.14 48.67 50.15 48.98 46.00 44.10 43.23 43.57 42.94 44.57 43.69 44.38 46.88 49.14 47.08 46.03 41.77 38.64 39.73 44.44 41.94 39.93 41.67 38.23 39.42 39.23 37.11 26.03 25.36 33.30 44.32 41.59 42.36 42.10 42.65 44.41 44.48 44.72
46.79 45.32 56.29 58.05 47.10 48.05 45.15 48.84 46.84 48.68 50.19 48.38 48.07 46.18 44.20 44.36 42.39 42.47 43.21 45.86 50.10 48.70 42.30 43.91 39.06 34.21 38.53 45.42 48.06 45.35 39.86 40.05 32.80 31.96 33.91 31.81 32.93 46.63 45.49 43.73 43.88 43.36 44.81 44.36 44.21
43.69 46.64 56.53 54.55 40.61 43.71 49.74 49.11 49.03 47.25 47.39 46.83 45.68 46.95 46.49 43.14 38.95 43.72 44.62 48.85 49.10 46.57 43.51 43.38 36.62 30.32 33.90 39.02 43.78 42.06 42.76 41.84 39.51 38.64 33.48 29.43 32.90 47.08 46.58 45.08 45.01 43.33 45.57 46.24 46.38
44.48 43.51 49.38 50.37 48.68 45.21 44.54 45.32 45.18 49.94 48.27 48.07 46.35 46.15 43.74 41.75 42.78 41.47 43.49 47.41 48.81 47.39 51.72 46.51 38.72 35.13 30.66 37.76 40.62 38.48 41.19 43.12 38.76 29.51 33.32 34.26 36.51 41.55 43.82 44.23 45.42 44.21 44.61 44.40 44.67
46.42 45.59 46.87 41.43 43.74 45.16 45.65 44.89 43.18 43.73 47.97 47.11 43.81 44.32 41.26 36.48 38.95 38.70 43.30 43.85 46.70 48.73 44.31 40.39 34.07 37.04 38.33 41.05 41.80 40.63 40.64 40.65 39.51 39.27 33.75 36.74 38.53 41.57 42.58 43.06 42.88 43.59 44.81 45.03 44.87
44.12 43.97 45.84 43.11 44.77 44.47 44.15 43.17 43.33 44.57 43.91 43.43 41.35 43.16 41.50 36.52 38.03 36.23 40.68 39.31 38.83 43.43 41.11 42.04 33.12 36.35 35.63 40.52 40.29 38.60 41.47 41.52 41.96 41.84 41.23 40.99 39.49 42.65 44.09 44.24 43.69 43.50 44.63 43.70 44.43
49.52 49.15 45.27 43.59 43.10 41.82 42.71 44.18 43.67 43.92 45.32 45.51 42.97 40.03 38.65 40.42 42.12 41.69 41.82 41.70 41.14 38.24 39.06 38.93 37.04 34.17 30.01 38.90 38.13 33.57 38.93 40.90 41.55 43.43 41.93 36.24 40.13 41.96 41.53 42.54 41.65 41.88 42.74 42.60 43.21
MSLP
1018.66 1018.19 1017.68 1017.23 1016.84 1016.52 1016.25 1016.03 1015.75 1015.57 1015.23 1015.01 1014.81 1014.70 1014.55 1014.44 1014.17 1013.78 1012.62 1009.80 1009.63 1009.50 1009.27 1009.27 1009.17 1009.18 1009.31 1009.24 1008.78 1008.52 1008.84 1008.04 1006.74 1005.57 1004.34 1003.17 1003.35 1002.15 1002.07 1001.94 1002.43 1002.59 1003.48 1003.56 1003.37
1018.71 1018.20 1017.74 1017.21 1016.75 1016.34 1016.00 1015.70 1015.51 1015.25 1015.06 1014.84 1014.58 1014.47 1014.34 1014.20 1013.90 1012.30 1008.40 1008.22 1008.24 1008.50 1009.35 1009.16 1008.98 1008.81 1009.32 1008.53 1008.46 1007.71 1007.78 1006.89 1006.03 1004.88 1004.23 1003.17 1003.51 1003.31 1002.95 1002.28 1002.47 1002.85 1002.43 1003.08 1003.14
1018.49 1018.08 1017.65 1017.20 1016.71 1016.22 1015.78 1015.42 1015.12 1014.92 1014.64 1014.49 1014.42 1014.34 1014.21 1014.04 1012.75 1008.55 1006.30 1006.77 1007.33 1008.00 1008.23 1008.45 1008.71 1008.65 1009.04 1008.26 1007.69 1007.05 1006.63 1006.38 1005.40 1004.53 1003.88 1003.54 1003.57 1003.31 1003.62 1003.12 1002.94 1003.29 1003.12 1002.97 1003.37
1018.47 1017.91 1017.50 1017.09 1016.64 1016.17 1015.70 1015.20 1014.80 1014.49 1014.29 1014.21 1014.14 1014.08 1013.95 1013.74 1010.77 1006.77 1006.28 1005.82 1007.13 1007.71 1008.15 1008.37 1008.57 1008.90 1008.44 1007.74 1006.83 1006.59 1005.86 1005.60 1004.74 1003.99 1003.77 1003.57 1003.08 1003.94 1003.99 1003.87 1003.37 1003.27 1003.27 1003.37 1003.67
1018.09 1017.78 1017.23 1016.84 1016.45 1016.02 1015.55 1015.14 1014.69 1014.25 1014.00 1014.00 1014.00 1013.87 1013.68 1012.53 1008.67 1006.41 1006.65 1006.73 1007.11 1007.53 1007.64 1008.05 1008.25 1008.05 1007.44 1006.83 1006.16 1005.65 1005.28 1004.80 1004.17 1003.70 1003.77 1003.24 1003.32 1003.70 1003.84 1003.61 1003.38 1003.36 1003.39 1003.71 1004.00
1017.74 1017.35 1016.92 1016.49 1016.11 1015.71 1015.28 1014.86 1014.48 1014.15 1013.75 1013.68 1013.78 1013.76 1013.40 1010.52 1005.82 1006.01 1006.35 1006.80 1006.62 1007.08 1007.04 1007.55 1006.70 1006.12 1005.71 1005.50 1005.35 1004.38 1004.33 1003.96 1003.69 1003.48 1003.35 1003.36 1003.38 1003.54 1003.59 1003.55 1003.61 1003.71 1003.77 1004.00 1004.21
1017.46 1017.12 1016.43 1015.95 1015.65 1015.27 1014.90 1014.49 1014.10 1013.70 1013.45 1013.29 1013.42 1013.35 1012.04 1008.39 1005.25 1005.30 1005.66 1006.02 1005.88 1006.03 1006.25 1006.03 1005.73 1006.25 1004.54 1004.43 1004.01 1003.90 1003.85 1003.62 1003.26 1003.04 1002.93 1003.14 1003.40 1003.54 1003.41 1003.41 1003.55 1003.70 1003.94 1004.10 1004.40
1017.13 1016.68 1016.12 1015.53 1015.19 1014.78 1014.36 1014.04 1013.64 1013.13 1012.94 1012.93 1013.07 1012.78 1010.24 1005.81 1005.24 1005.43 1005.07 1005.36 1005.12 1005.21 1005.24 1004.65 1004.40 1003.98 1003.94 1003.46 1003.24 1003.11 1003.53 1003.68 1003.29 1003.09 1003.11 1003.23 1003.56 1003.39 1002.98 1003.07 1003.62 1003.86 1004.14 1004.34 1004.45
1016.82 1016.30 1015.78 1015.28 1014.65 1014.33 1013.89 1013.45 1013.02 1012.46 1012.37 1012.61 1012.78 1012.02 1008.32 1004.99 1004.75 1004.42 1004.43 1004.44 1004.55 1004.55 1004.41 1003.91 1003.48 1003.90 1003.90 1003.94 1004.19 1003.53 1004.20 1003.79 1003.50 1002.79 1002.78 1003.08 1003.34 1002.99 1002.75 1002.60 1003.51 1003.92 1004.13 1004.37 1004.45
1016.70 1015.98 1015.39 1014.88 1014.50 1013.87 1013.49 1012.70 1012.25 1012.47 1012.28 1012.22 1011.42 1011.04 1007.31 1004.73 1003.98 1003.88 1003.99 1004.06 1004.25 1004.33 1004.45 1004.51 1004.56 1004.59 1004.60 1004.70 1004.61 1004.18 1003.96 1003.66 1003.05 1002.10 1002.41 1002.76 1003.04 1002.74 1002.95 1002.92 1003.26 1003.59 1003.62 1003.93 1004.25
1016.17 1015.67 1014.96 1014.41 1014.13 1013.79 1013.17 1012.44 1012.19 1011.75 1010.77 1008.89 1007.74 1006.63 1004.55 1003.34 1003.41 1003.63 1003.77 1003.94 1004.18 1004.36 1004.79 1004.86 1005.15 1005.07 1004.61 1004.01 1003.48 1003.57 1003.46 1003.14 1002.24 1001.15 1001.41 1002.38 1002.59 1002.78 1002.74 1002.97 1003.57 1003.81 1004.01 1004.07 1004.06
1015.62 1014.97 1014.50 1013.94 1013.59 1013.45 1013.42 1012.22 1008.67 1007.38 1007.19 1006.48 1005.77 1005.30 1004.20 1003.58 1003.34 1003.35 1003.56 1004.21 1004.37 1004.65 1004.56 1004.94 1004.57 1003.88 1003.44 1003.13 1002.94 1002.98 1002.97 1002.62 1002.07 1001.80 1002.11 1002.57 1002.89 1002.62 1002.72 1002.88 1002.97 1003.25 1003.58 1003.78 1003.95
1015.34 1014.45 1013.84 1013.13 1012.53 1012.79 1011.70 1009.75 1007.22 1006.55 1006.29 1004.31 1003.86 1004.06 1003.44 1003.50 1003.21 1003.11 1003.47 1003.92 1004.26 1004.55 1004.35 1004.13 1003.27 1003.25 1002.65 1002.36 1002.24 1002.36 1002.74 1002.89 1002.96 1002.62 1002.73 1003.04 1003.32 1003.16 1002.92 1002.90 1002.87 1002.97 1003.15 1003.56 1004.19
1014.94 1014.22 1013.26 1012.40 1012.04 1010.58 1009.76 1007.15 1006.97 1006.81 1006.17 1003.45 1003.10 1002.55 1002.82 1003.28 1003.33 1002.90 1003.06 1003.72 1003.85 1004.03 1003.73 1003.30 1002.64 1002.24 1002.05 1002.12 1002.22 1002.44 1002.71 1003.06 1003.42 1003.79 1004.33 1003.97 1004.63 1004.22 1003.58 1003.23 1002.78 1003.23 1004.24 1004.62 1004.76
1014.18 1013.65 1013.31 1013.01 1012.05 1010.19 1007.12 1006.36 1006.30 1006.42 1005.43 1002.84 1001.91 1001.31 1001.99 1003.11 1002.46 1002.64 1002.73 1003.37 1003.71 1003.70 1003.93 1003.30 1002.60 1002.11 1001.87 1001.94 1002.15 1002.68 1003.02 1003.76 1004.36 1005.09 1005.42 1005.48 1005.78 1004.51 1003.83 1003.58 1004.11 1004.51 1004.75 1005.09 1005.23
1013.80 1013.14 1012.60 1011.59 1011.40 1008.62 1006.76 1006.41 1006.58 1006.82 1004.41 1001.72 1001.45 1001.72 1002.46 1002.68 1002.46 1002.47 1002.86 1003.41 1003.65 1003.92 1003.67 1003.32 1002.79 1002.45 1001.56 1001.44 1001.86 1002.60 1003.47 1004.56 1005.52 1006.44 1007.03 1006.08 1006.36 1005.09 1004.19 1003.93 1004.30 1004.66 1005.04 1005.22 1005.40
1012.84 1012.02 1012.51 1011.00 1009.10 1006.78 1006.81 1006.62 1006.79 1005.17 1002.70 1001.65 1001.30 1001.67 1002.14 1002.29 1002.38 1002.48 1003.12 1003.74 1004.20 1004.31 1004.03 1003.57 1003.07 1002.32 1001.93 1001.91 1002.16 1002.99 1004.37 1006.32 1007.27 1007.56 1007.32 1006.41 1005.98 1004.73 1003.94 1003.71 1004.03 1004.67 1005.04 1005.26 1005.48
1012.40 1010.88 1009.50 1008.96 1007.40 1007.18 1007.03 1007.10 1005.80 1003.50 1002.13 1001.15 1000.84 1001.05 1001.66 1001.72 1002.02 1002.11 1002.76 1003.49 1003.88 1004.10 1004.10 1004.08 1003.56 1002.61 1002.76 1003.02 1003.39 1003.69 1004.92 1006.79 1008.24 1008.14 1007.57 1006.69 1006.09 1004.39 1003.76 1003.89 1004.34 1004.94 1005.15 1005.36 1005.62
1011.82 1009.91 1008.61 1006.95 1006.83 1007.13 1007.56 1006.59 1004.32 1003.16 1002.48 1001.86 1001.43 1001.07 1001.07 1000.91 1001.48 1002.10 1002.49 1002.83 1002.79 1003.54 1004.28 1004.47 1004.12 1003.41 1003.59 1003.65 1004.08 1004.67 1005.42 1006.98 1008.22 1008.43 1008.29 1007.08 1005.46 1004.10 1004.17 1004.49 1004.77 1005.03 1005.27 1005.42 1005.31
1012.28 1010.11 1007.58 1005.72 1006.02 1006.57 1007.16 1005.74 1003.68 1002.51 1002.58 1002.37 1002.02 1001.60 1001.81 1001.94 1002.35 1002.27 1002.82 1002.93 1003.05 1003.04 1003.64 1004.61 1005.07 1004.63 1004.35 1004.22 1004.43 1005.21 1006.11 1007.25 1008.58 1009.66 1009.32 1007.61 1005.98 1005.29 1005.23 1005.07 1004.96 1005.08 1005.09 1004.96 1004.85
1011.98 1009.75 1005.86 1004.93 1005.76 1006.72 1006.43 1004.89 1003.12 1002.70 1002.81 1002.92 1002.79 1002.82 1003.04 1003.03 1003.29 1003.47 1003.73 1004.12 1003.70 1003.71 1004.14 1005.02 1005.91 1006.05 1005.90 1005.38 1005.58 1006.22 1006.53 1007.45 1008.63 1009.81 1009.92 1008.93 1006.86 1005.15 1005.19 1004.98 1004.94 1005.01 1004.93 1004.80 1004.74
1011.79 1009.08 1005.63 1005.40 1006.19 1006.15 1005.36 1004.36 1003.36 1002.81 1002.72 1003.03 1003.16 1003.49 1003.71 1003.88 1004.10 1004.33 1004.33 1004.01 1004.47 1004.53 1005.03 1005.92 1006.94 1007.23 1006.84 1006.16 1005.92 1006.19 1006.76 1007.43 1008.53 1009.45 1009.44 1008.69 1006.97 1005.11 1005.13 1004.89 1004.62 1004.68 1004.65 1004.68 1005.04
1012.81 1009.28 1005.72 1005.64 1006.01 1005.84 1005.25 1004.67 1003.22 1002.95 1003.16 1003.38 1003.80 1004.18 1004.52 1004.89 1005.02 1004.94 1004.94 1004.92 1005.15 1005.30 1005.97 1006.94 1007.71 1008.29 1007.68 1006.96 1006.27 1006.58 1006.80 1007.31 1007.94 1008.87 1009.16 1008.76 1007.37 1005.77 1004.95 1004.70 1004.54 1004.86 1005.18 1005.37 1005.70
1013.24 1009.50 1006.61 1006.10 1005.70 1005.83 1005.69 1004.84 1003.80 1003.20 1003.56 1004.08 1004.79 1005.24 1005.60 1005.86 1005.82 1005.88 1005.82 1005.64 1005.98 1006.57 1006.80 1007.31 1008.42 1008.87 1008.74 1008.35 1008.49 1007.99 1007.57 1007.12 1007.58 1008.17 1008.11 1007.56 1006.85 1005.90 1005.22 1004.89 1005.19 1005.63 1005.67 1006.11 1006.29
1013.06 1010.00 1009.03 1007.71 1007.13 1006.67 1006.29 1005.80 1005.01 1004.44 1004.39 1005.04 1005.74 1006.23 1007.03 1007.34 1007.29 1007.26 1007.00 1006.95 1007.14 1007.45 1007.81 1008.50 1009.15 1009.36 1009.09 1008.49 1008.24 1008.35 1008.00 1007.86 1007.44 1007.48 1007.09 1006.75 1006.10 1005.58 1005.44 1005.83 1006.25 1006.35 1006.45 1006.61 1006.92
1013.00 1011.41 1009.87 1009.14 1008.24 1007.28 1006.63 1006.12 1005.78 1005.81 1006.10 1006.09 1006.76 1007.47 1008.02 1008.56 1008.77 1008.98 1008.86 1008.66 1008.69 1008.53 1008.99 1009.54 1009.85 1009.77 1009.46 1008.85 1008.29 1007.56 1007.05 1006.95 1006.56 1006.46 1006.23 1005.96 1005.48 1005.68 1005.84 1006.12 1006.49 1006.83 1007.04 1007.61 1007.80
1013.12 1012.11 1011.14 1009.83 1009.00 1008.11 1007.00 1006.47 1006.48 1006.75 1007.07 1007.25 1007.91 1008.46 1008.96 1009.26 1009.43 1009.57 1009.65 1009.63 1009.47 1009.66 1009.97 1010.48 1010.66 1010.67 1010.07 1009.38 1008.61 1007.22 1005.52 1005.32 1005.26 1005.35 1005.50 1005.63 1006.00 1006.01 1006.43 1006.80 1007.22 1007.76 1008.10 1008.47 1008.70
Wind_Speed
17 17 15 15 14 13 14 14 14 13 13 13 14 13 13 14 15 12 12 16 14 20 8 7 6 10 10 10 11 13 8 11 17 15 15 1 9 20 7 2 5 5 9 7 6
19 18 18 16 15 14 14 14 13 13 13 13 12 12 13 13 12 14 22 20 23 15 9 8 9 9 7 7 7 9 11 15 13 15 11 11 8 9 14 2 2 3 5 8 9
18 19 19 18 17 14 14 14 14 13 13 12 11 11 10 9 6 9 5 29 21 12 8 6 10 7 10 9 13 10 14 11 18 20 17 10 3 10 6 4 4 5 4 4 7
19 18 18 20 19 17 15 15 15 14 13 12 11 11 11 5 0 2 5 15 16 9 6 6 5 4 10 13 15 9 14 17 11 14 16 6 12 15 4 6 7 4 5 5 6
17 19 19 19 20 19 17 15 16 14 12 11 10 9 7 5 13 4 7 10 9 6 9 10 8 10 11 11 12 15 15 17 15 14 8 6 6 6 7 9 7 8 6 6 7
15 17 19 19 19 20 18 15 14 15 12 9 8 6 5 7 5 12 10 7 9 10 9 10 12 12 12 14 11 10 16 14 14 18 7 8 5 5 6 7 7 5 4 4 5
15 16 17 19 19 20 20 18 16 15 13 9 7 6 6 18 3 12 11 8 8 9 9 16 22 12 11 8 17 16 6 12 11 5 6 3 4 8 10 9 10 7 5 5 6
16 16 18 18 19 20 21 21 19 19 11 7 5 6 10 9 14 10 9 10 10 14 17 20 17 6 2 9 9 6 2 4 8 9 8 9 8 10 10 14 10 11 7 7 7
17 18 18 20 19 21 21 22 23 16 9 6 5 4 10 11 7 13 10 11 10 8 9 12 6 3 9 3 6 1 4 5 10 11 9 9 5 13 5 8 8 9 8 7 7
20 19 20 20 21 18 20 24 14 5 4 7 7 4 8 7 7 11 8 10 4 7 3 3 3 3 6 2 6 7 8 8 11 18 17 9 8 9 7 8 11 10 9 8 9
21 22 21 21 20 17 10 6 1 3 7 12 11 7 14 8 9 9 8 8 7 4 6 7 2 6 12 11 11 7 7 9 5 4 14 10 7 7 4 2 6 8 8 8 9
22 23 25 22 19 14 4 5 12 6 7 19 17 14 12 7 6 7 9 6 5 7 9 4 10 14 15 14 14 12 5 6 7 6 3 4 5 2 3 6 6 6 6 6 3
24 24 24 24 23 6 7 12 11 13 5 10 18 14 8 2 4 10 9 9 7 10 11 10 11 17 17 7 5 2 3 6 6 7 7 3 5 5 8 6 8 7 9 4 7
25 24 21 24 5 2 6 10 17 12 4 4 8 10 12 5 5 10 11 7 6 11 11 9 11 14 2 6 5 5 7 9 10 2 2 6 4 5 8 9 15 1 10 8 10
22 23 24 12 8 5 4 7 4 5 3 8 8 8 13 9 4 7 9 6 11 11 6 10 9 9 6 7 8 7 6 7 7 7 7 9 4 8 9 11 10 8 9 8 9
24 23 21 2 5 13 10 8 4 2 6 6 9 7 12 11 11 7 6 1 5 8 9 12 9 8 6 4 6 6 6 7 5 1 2 16 6 9 10 10 7 8 8 8 9
26 29 15 6 6 6 7 3 3 5 9 4 8 14 14 11 13 11 10 6 5 3 6 6 9 10 9 5 5 3 6 2 4 1 8 1 3 8 4 9 11 9 8 8 8
29 32 7 10 9 9 3 3 5 8 6 4 5 16 13 13 12 13 12 9 12 9 6 3 6 5 7 4 4 2 6 5 4 3 5 3 7 5 7 10 10 9 8 5 3
27 4 5 6 12 5 2 4 4 5 8 8 8 6 7 13 7 9 9 11 10 11 4 1 6 2 5 3 4 4 3 4 0 5 1 4 6 6 16 10 8 6 6 8 8
6 4 7 8 7 3 1 6 6 5 7 8 3 5 6 2 4 5 2 4 4 2 8 1 3 4 7 8 1 2 4 3 4 3 4 5 5 6 4 5 5 3 3 2 5
2 4 3 5 5 0 4 7 4 9 4 4 6 6 7 7 3 4 2 8 12 4 6 3 3 3 7 1 4 5 4 3 5 6 5 1 4 9 4 6 5 5 7 8 8
5 3 5 3 2 4 6 9 4 3 4 1 3 5 4 5 1 2 6 3 3 8 3 3 4 2 7 11 10 9 6 5 6 5 3 5 9 12 4 6 7 9 9 7 1
6 5 5 4 3 3 2 15 5 4 4 4 6 7 8 6 3 3 5 7 5 4 2 3 2 1 7 6 5 9 8 5 5 4 8 4 6 9 11 8 6 4 9 8 8
4 5 2 2 3 5 4 7 8 6 3 3 5 6 5 5 6 1 3 4 8 7 6 7 1 4 5 2 1 7 15 9 6 5 8 13 16 16 12 9 8 8 9 8 8
4 4 4 4 5 8 6 7 11 8 7 6 2 6 6 4 7 5 6 9 8 2 1 3 5 5 7 10 5 10 14 16 13 12 7 12 16 11 3 11 7 7 9 10 10
4 5 5 6 8 7 4 4 12 7 6 4 5 9 6 3 4 5 9 5 3 7 3 6 3 4 7 11 11 16 15 18 20 16 17 16 12 3 7 8 11 9 13 12 11
4 5 3 5 8 7 6 3 6 4 3 5 6 5 6 5 5 6 7 6 5 0 3 1 1 2 5 9 8 9 16 15 14 14 13 9 3 8 10 10 9 11 11 9 10
Wind_Direction
344 344 346 346 345 341 337 327 319 313 311 308 306 308 306 307 304 275 244 226 198 236 299 323 256 224 242 257 256 213 233 237 246 248 261 214 38 303 300 26 74 358 122 166 131
338 338 338 339 339 339 336 333 320 312 307 304 306 306 309 313 295 261 242 222 236 246 217 234 253 201 229 226 240 204 220 234 250 259 260 303 357 257 302 330 32 277 281 159 149
337 335 332 332 332 334 332 332 326 310 305 305 306 310 315 316 274 238 308 214 213 181 204 254 241 200 223 224 242 245 229 226 244 261 269 268 74 312 1 315 275 354 352 30 55
333 333 331 328 327 325 327 328 327 316 303 302 306 313 312 278 240 32 337 175 178 170 210 226 260 244 225 224 224 231 235 237 254 239 250 215 151 217 288 259 309 354 338 11 45
333 330 330 327 323 321 319 319 324 317 300 296 299 314 311 230 248 161 139 138 144 168 203 207 242 235 215 224 225 220 234 226 246 256 251 152 168 199 244 276 311 338 8 32 15
328 327 327 325 321 317 315 312 314 317 295 280 287 300 236 262 130 157 149 162 183 189 200 194 228 221 207 224 215 219 220 234 225 245 226 172 201 179 240 247 266 296 335 331 331
327 322 323 322 321 318 316 312 310 308 295 272 270 263 255 245 177 172 157 193 204 200 226 229 238 241 234 244 239 233 228 228 251 260 230 172 240 225 229 221 222 227 239 267 259
321 320 318 321 319 317 315 313 309 303 279 253 242 265 251 261 246 260 185 206 207 206 221 247 249 254 288 247 314 215 168 189 274 245 240 158 251 245 238 208 201 191 199 208 236
320 318 315 316 317 317 315 309 306 301 251 199 202 219 261 306 199 233 187 230 198 243 264 310 12 305 330 292 321 300 228 238 257 232 208 152 191 241 244 135 150 167 197 199 218
318 315 311 311 315 317 315 301 282 311 189 186 262 270 266 227 201 228 200 248 185 225 277 306 318 288 311 324 223 210 206 242 231 240 193 181 197 241 212 162 182 192 203 207 220
318 314 311 311 315 317 332 341 124 197 242 200 187 232 290 211 170 214 185 241 199 206 218 211 178 228 242 238 242 258 260 230 293 249 151 183 196 214 270 306 198 201 209 216 217
317 316 317 314 313 303 303 247 262 293 271 222 247 225 260 300 164 198 183 188 241 231 218 252 223 236 242 244 236 248 285 322 327 345 102 178 206 214 312 274 249 238 244 226 155
318 317 318 316 314 274 208 233 267 303 299 276 205 228 222 108 278 194 181 207 231 228 248 219 237 225 246 275 326 13 346 312 295 313 350 83 348 318 273 256 246 240 212 188 106
317 314 320 330 311 275 225 244 243 269 302 217 174 216 196 153 261 254 186 208 225 241 237 248 262 266 195 314 318 322 263 257 259 6 273 44 276 290 274 263 235 336 80 92 82
313 316 319 315 290 270 328 336 7 38 283 181 153 141 159 173 170 214 179 195 253 273 340 289 312 321 233 201 215 233 59 32 11 6 30 324 357 267 261 261 91 87 84 81 85
314 314 328 316 196 248 300 304 21 260 254 193 139 188 151 205 240 135 143 230 290 284 281 275 309 295 304 221 222 82 53 14 348 9 344 248 199 266 263 149 120 102 98 89 80
315 310 311 263 240 315 297 349 254 241 158 212 167 161 183 201 226 164 176 183 213 191 261 289 270 281 316 344 319 119 84 346 336 278 218 327 294 229 189 121 125 118 98 94 92
318 310 246 211 232 275 334 303 241 301 129 286 159 168 186 206 216 187 176 201 214 240 285 274 313 263 34 54 17 340 127 141 235 237 284 307 206 243 145 104 92 95 108 110 140
318 302 258 235 229 243 354 258 236 268 8 358 329 297 234 210 183 215 195 209 196 188 190 116 270 311 252 290 76 1 59 128 302 251 331 255 302 352 108 103 110 142 171 199 212
315 284 261 251 185 85 233 265 284 77 27 325 291 353 348 95 226 357 91 347 310 122 116 96 353 342 336 312 56 282 298 36 346 5 273 273 260 127 89 99 84 31 298 249 243
230 287 253 168 103 114 225 249 257 107 84 337 360 336 346 346 47 297 61 327 333 335 116 98 115 289 12 284 183 281 236 197 163 148 196 321 269 127 134 152 186 234 236 240 252
304 268 195 150 141 221 241 286 299 320 157 217 261 277 281 358 355 11 2 48 313 330 339 35 126 272 243 265 234 232 235 196 147 258 250 182 250 336 320 227 207 234 233 242 304
306 274 267 115 237 244 325 279 273 186 247 22 356 9 8 348 351 12 20 43 44 312 358 3 178 320 319 271 248 229 239 233 155 142 226 223 264 290 284 288 289 5 46 45 38
284 293 205 189 259 277 323 299 325 109 101 81 20 357 327 337 348 274 305 45 43 39 93 79 328 187 204 149 357 328 323 284 204 179 235 250 267 271 271 272 49 33 42 30 21
247 272 355 335 332 334 344 326 313 314 65 86 303 73 55 344 347 333 9 21 2 157 11 128 212 237 261 275 225 228 246 277 276 272 230 240 245 260 339 69 56 49 24 11 20
294 349 341 300 289 275 293 266 284 46 27 56 35 30 37 337 323 328 349 4 302 7 36 12 303 291 283 286 279 271 248 227 254 259 270 270 271 28 63 53 35 19 38 26 8
347 326 314 298 306 318 278 55 68 77 19 68 54 41 351 339 12 313 297 288 281 245 7 75 275 20 260 265 327 287 246 247 251 245 266 268 50 51 34 29 21 49 31 7 344